Regional Weather Roundup
Issued by NWS Boston, MA

Home | Current Version | Previous Version | Text Only | Print | Product List | Glossary On
Versions: 1 2 3 4 5 6 7 8 9 10 11 12 13 14 15 16 17 18 19 20 21 22 23 24 25 26 27 28 29 30 31 32 33 34 35 36 37 38 39 40 41 42 43 44 45 46 47 48 49 50
000
ASUS41 KBOX 222110
RWRBOX

REGIONAL WEATHER ROUNDUP
NATIONAL WEATHER SERVICE TAUNTON MA
500 PM EDT SAT JUL 22 2017

NOTE:  "FAIR" INDICATES FEW OR NO CLOUDS BELOW 12,000 FEET WITH NO
SIGNIFICANT WEATHER AND/OR OBSTRUCTIONS TO VISIBILITY.

MAZALL-222200-
EASTERN MASSACHUSETTS

CITY           SKY/WX    TMP DP  RH WIND       PRES   REMARKS
BOSTON         CLOUDY    77  64  64 SE7       29.80S
BEVERLY        CLOUDY    80  65  59 SE6       29.79F
LAWRENCE       MOSUNNY   85  61  44 SW9       29.81F
BEDFORD        CLOUDY    81  64  56 W3        29.78F
BLUE HILL        N/A     82  62  50 SW5       29.81F
NORWOOD        CLOUDY    83  67  58 S5        29.78F
MARSHFIELD     CLOUDY    81  68  65 S5        29.79S
PLYMOUTH       CLOUDY    80  65  59 S8        29.81F
TAUNTON        CLOUDY    83  61  47 SW7       29.79F
NEW BEDFORD    CLOUDY    81  63  54 S10       29.80F
$$

MAZALL-222200-
CAPE COD AND THE ISLANDS

CITY           SKY/WX    TMP DP  RH WIND       PRES   REMARKS
FALMOUTH       CLOUDY    79  66  65 S7        29.82F
HYANNIS        CLOUDY    79  66  64 S5        29.80F
CHATHAM        CLOUDY    77  66  68 S6        29.82F
PROVINCETOWN   CLOUDY    78  64  61 S8        29.81F
NANTUCKET      CLOUDY    71  65  81 SE6       29.82F
MARTHAS VNYRD  CLOUDY    78  65  63 S5        29.81F
$$

MAZALL-222200-
CENTRAL AND WESTERN MASSACHUSETTS

CITY           SKY/WX    TMP DP  RH WIND       PRES   REMARKS
WORCESTER      CLOUDY    78  61  55 W6        29.84F
FITCHBURG      CLOUDY    82  63  52 SW3       29.81F
ORANGE         CLOUDY    78  67  68 W5        29.83F
SPRINGFIELD    MOSUNNY   81  65  58 SW6       29.79F
WESTFIELD      CLOUDY    81  68  64 S5        29.81F
NORTH ADAMS    CLOUDY    73  66  78 S3        29.84F
PITTSFIELD     CLOUDY    74  61  63 CALM      29.85F
$$

RIZALL-222200-
RHODE ISLAND

CITY           SKY/WX    TMP DP  RH WIND       PRES   REMARKS
PROVIDENCE     CLOUDY    81  65  58 S7        29.81F
NEWPORT        CLOUDY    80  65  59 S8        29.81F
BLOCK ISLAND   CLOUDY    78  63  59 S3        29.82F
WESTERLY       CLOUDY    81  59  47 S6        29.82F
$$

CTZALL-222200-
CONNECTICUT

CITY           SKY/WX    TMP DP  RH WIND       PRES   REMARKS
BRADLEY INTL   CLOUDY    83  64  52 SW6       29.80F
HARTFORD       MOSUNNY   85  63  47 SW5       29.78F
BRIDGEPORT     CLOUDY    82  65  56 SE6       29.80F
DANBURY        MOSUNNY   80  65  59 S6        29.82F
GROTON         CLOUDY    79  62  56 CALM      29.80F
NEW HAVEN      CLOUDY    81  64  56 S6        29.80F
CHESTER        FAIR      81  64  57 CALM      29.82F
MERIDEN        CLOUDY    82  65  56 SW5       29.79F
WILLIMANTIC    MOSUNNY   84  63  49 SW5       29.81F
OXFORD         PTSUNNY   81  64  57 CALM      29.85F
$$

MEZ002-015-021-024-NHZ003-005-008-011-012-014-VTZ005-008-222200-
NORTHERN NEW ENGLAND

CITY           SKY/WX    TMP DP  RH WIND       PRES   REMARKS
PORTLAND ME    PTSUNNY   80  64  58 SE5       29.76F
BANGOR ME      PTSUNNY   82  50  32 NW14      29.75F
CONCORD NH     MOSUNNY   83  59  44 SW10      29.79F
MANCHESTER NH  CLOUDY    84  57  39 W7        29.78F
NASHUA NH      CLOUDY    82  62  50 VRB6      29.80
PORTSMOUTH NH  PTSUNNY   83  60  45 SW8       29.77F
JAFFREY NH     CLOUDY    78  63  59 SW3       29.85F
KEENE NH       CLOUDY    79  67  66 S9        29.82F
BURLINGTON VT  PTSUNNY   78  57  48 N9        29.82S
MT. WASHINGTON CLOUDY    52  48  87 W30G43      N/A
$$

NYZ052-076-222200-
EASTERN NEW YORK

CITY           SKY/WX    TMP DP  RH WIND       PRES   REMARKS
ALBANY         LGT RAIN  75  65  70 N6        29.83F
NEW YORK CITY  CLOUDY    88  66  48 NE12      29.77F HX  90
$$

ANZALL-222200-
MARINE OBSERVATIONS

STATION/POSITION TIME  TEMP    WIND        PRES    VSBY  WAVE
                       AIR SEA DIR/SP/G                  HT/PER
                 (UTC) (F)     (DEG/KT/KT) (MB)    (MI)  (FT/S)
BOSTON BUOY      2050   73 71  120/  6/  8 1008.7F         1/10
BUZZARDS BAY     2000   74     180/  3/  3 1010.3F
NANTUCKET SOUND  2050      71              1009.5F         1
MASS BAY-STELLWA 2004   72 65  160/  6/  6 1008.7F         1/11
ISLE OF SHOALS   2000   76     180/ 14/ 14 1008.7F
S OF BLOCK IS    2055      77                N/A           3/ 8
$$

......................KEY.........................
  SKY/WX - SKY CONDITION/PRESENT WEATHER
  TMP    - TEMPERATURE IN FAHRENHEIT
  DWPT   - DEWPOINT IN FAHRENHEIT
  RH     - RELATIVE HUMIDITY IN PERCENT
  WIND   - DIRECTION AND SPEED IN MPH
  PRES   - MEAN SEA LEVEL PRESSURE IN INCHES OF HG
  WCI    - WIND CHILL INDEX
  VSB    - VISIBILITY IN MILES
  HX     - HEAT INDEX
  TC     - TEMPERATURE IN CELSIUS
  VRB    - VARIABLE WIND DIRECTION
  N/A    - NOT AVAILABLE



USA.gov is the U.S. government's official web portal to all federal, state and local government web resources and services.